Simultaneous Nadir Overpasses (SNOs) Predictions

Prediction of SNOs over PacNW region [( 10.00, 139.50) to ( 22.70, 165.60)] between AQUA and NPP Satellites:

Table of predicted SNOs over PacNW region for the next 30.0 days since TLE Epoch: 9/24/2022
Index Date (AQUA) Time (AQUA) AQUA Lat,Lon Date (NPP) Time (NPP) NPP Lat,Lon Distance(km) Time Diff (sec)
1 09/26/2022 15:29:21 22.62, 156.29 09/26/2022 15:31:03 23.47, 152.43 406.27 102
2 09/29/2022 03:50:29 22.68, 144.12 09/29/2022 03:47:13 22.03, 141.04 325.00 196
3 10/07/2022 02:58:44 22.67, 157.11 10/07/2022 02:56:29 22.00, 153.74 354.53 135
4 10/15/2022 03:44:23 17.70, 146.56 10/15/2022 03:45:45 16.80, 142.32 460.49 82
5 10/17/2022 15:45:10 10.06, 150.48 10/17/2022 15:41:41 8.49, 147.30 390.52 209
